Tracking 32420 objects as of 8-Dec-2025
HD Live streaming from Space Station
objects crossing your sky now

STARLINK-4296

Track STARLINK-4296 now!
10-day predictions
STARLINK-4296 is classified as:


NORAD ID: 52995
Int'l Code: 2022-076K
Perigee: 546.0 km
Apogee: 547.8 km
Inclination: 53.2 °
Period: 95.4 minutes
Semi major axis: 6917 km
RCS: Unknown
Launch date: July 7, 2022
Source: United States (US)
Launch site: AIR FORCE EASTERN TEST RANGE (AFETR)
Your satellite tracking list
Your tracking list is empty




NASA's NSSDC Master Catalog

Two Line Element Set (TLE):
1 52995U 22076K   25341.75184842  .00000737  00000-0  64417-4 0  9994
2 52995  53.2170 146.8461 0001264  84.7912 275.3225 15.08835217188962
Source of the keplerian elements: AFSPC